{"data":{"norad_id":56342,"epoch":"2026-05-25T00:23:24.584928Z","epoch_age_seconds":83679,"freshness":"FRESH","line1":"1 56342U 23058AB  26145.01625677 -.00002298  00000+0 -15518-3 0  9995","line2":"2 56342  97.4487 146.1171 0002870  92.5542 267.6014 15.05660702169684","mean_motion":15.05660702,"eccentricity":0.000287,"inclination_deg":97.4487,"raan_deg":146.1171,"arg_perigee_deg":92.5542,"mean_anomaly_deg":267.6014,"bstar":-0.00015518,"rev_number":16968,"period_min":95.639077123234,"perigee_km":547.49010131074,"apogee_km":551.46655250839,"semimajor_km":6927.6153269096,"source":"CELESTRAK","updated_at":"2026-05-25T13:38:18.005122Z"}}